StationID,Date,MaxTemp,MinTemp,Precipitation,Snowfall,SnowDepth
"USC00048331","1913-01-21",24.08,19.94,,,
"USC00048331","1913-01-22",24.98,21.92,,51.00,
"USC00048331","1913-01-23",24.08,15.08,,,
"USC00048331","1913-01-24",50.00,24.98,,,
"USC00048331","1913-01-25",26.96,19.94,,,
"USC00048331","1913-01-26",28.94,26.06,,,
"USC00048331","1913-01-27",21.92,10.94,,,
"USC00048331","1913-01-28",33.98,10.04,,,
"USC00048331","1913-01-29",24.98,8.96,,,
"USC00048331","1913-01-30",32.00,28.04,,,
"USC00048331","1913-01-31",33.98,28.94,,,
"USC00048331","1913-04-01",39.92,32.00,,,
"USC00048331","1913-04-02",24.98,24.08,,,
"USC00048331","1913-04-03",35.96,30.92,,,
"USC00048331","1913-04-04",39.92,39.02,,,
"USC00048331","1913-04-05",30.02,24.08,,,
"USC00048331","1913-04-06",32.00,28.04,,,
"USC00048331","1913-04-07",32.00,24.08,,,
"USC00048331","1913-04-08",37.94,35.96,,,
"USC00048331","1913-04-09",33.98,32.00,,,
"USC00048331","1913-04-10",42.98,37.04,,,
"USC00048331","1913-04-11",42.98,28.94,,,
"USC00048331","1913-04-12",42.98,35.06,,,
"USC00048331","1913-04-13",33.98,28.04,,,
"USC00048331","1913-04-14",28.04,26.06,,,
"USC00048331","1913-04-15",33.98,24.08,,,
"USC00048331","1913-04-16",39.02,32.00,,,
"USC00048331","1913-04-17",33.98,33.98,,,
"USC00048331","1913-04-18",32.00,30.92,,,
"USC00048331","1913-04-19",37.94,23.00,,,
"USC00048331","1913-04-20",42.08,32.00,,,
"USC00048331","1913-04-21",42.08,39.92,,,
"USC00048331","1913-04-22",41.00,37.04,,,
"USC00048331","1913-04-23",42.08,39.92,,,
"USC00048331","1913-04-24",42.98,39.02,,,
"USC00048331","1913-04-25",37.04,33.98,,,
"USC00048331","1913-04-26",41.00,39.02,,,
"USC00048331","1913-04-27",42.08,28.04,,,
"USC00048331","1913-04-28",32.00,26.96,,,
"USC00048331","1913-04-29",26.06,24.08,,,
"USC00048331","1913-04-30",32.00,24.08,,,
"USC00048331","1913-05-01",35.06,30.02,,,
"USC00048331","1913-05-02",42.08,37.94,,,
"USC00048331","1913-05-03",42.08,41.00,,,
"USC00048331","1913-05-04",44.96,42.98,,,
"USC00048331","1913-05-05",44.06,39.92,,,
"USC00048331","1913-05-06",46.94,44.96,,,
"USC00048331","1913-05-07",46.94,42.08,,,
"USC00048331","1913-05-08",44.06,42.98,,,
"USC00048331","1913-05-09",39.02,39.02,,,
"USC00048331","1913-05-10",37.04,33.98,,,
"USC00048331","1913-05-11",39.92,37.94,,,
"USC00048331","1913-05-12",37.94,35.96,,,
"USC00048331","1913-05-13",39.02,33.98,,,
"USC00048331","1913-05-14",41.00,39.02,,,
"USC00048331","1913-05-15",44.06,44.06,,,
"USC00048331","1913-05-16",48.02,37.94,,,
"USC00048331","1913-05-17",39.02,35.96,,,
"USC00048331","1913-05-18",41.00,39.92,,,
"USC00048331","1913-05-19",46.94,39.92,,,
"USC00048331","1913-05-20",48.02,46.04,,,
"USC00048331","1913-05-21",51.08,50.00,,,
"USC00048331","1913-05-22",55.94,53.96,,,
"USC00048331","1913-05-23",51.08,48.92,,,
"USC00048331","1913-05-24",55.04,51.08,,,
"USC00048331","1913-05-25",57.92,50.00,,,
"USC00048331","1913-05-26",55.94,51.98,,,
"USC00048331","1913-05-27",51.98,39.92,,,
"USC00048331","1913-05-28",39.92,37.94,,,
"USC00048331","1913-05-29",51.98,50.00,,,
"USC00048331","1913-05-30",51.98,51.08,,,
"USC00048331","1913-05-31",50.00,48.02,,,
"USC00048331","1913-06-01",50.00,51.98,,,
"USC00048331","1913-06-02",57.92,55.94,,,
"USC00048331","1913-06-03",55.94,53.96,,,
"USC00048331","1913-06-04",51.98,50.00,,,
"USC00048331","1913-06-05",53.06,51.08,,,
"USC00048331","1913-06-06",55.94,53.06,,,
"USC00048331","1913-06-07",53.06,51.08,,,
"USC00048331","1913-06-08",48.92,48.02,,,
"USC00048331","1913-06-09",42.98,37.94,,,
"USC00048331","1913-06-10",46.04,44.06,,,
"USC00048331","1913-06-11",53.96,46.04,,,
"USC00048331","1913-06-12",51.98,48.02,,,
"USC00048331","1913-06-13",53.96,50.00,,,
"USC00048331","1913-06-14",57.02,48.92,,,
"USC00048331","1913-06-15",53.06,51.98,,,
"USC00048331","1913-06-16",53.96,51.08,,,
"USC00048331","1913-06-17",53.06,51.98,,,
"USC00048331","1913-06-18",53.06,48.02,,,
"USC00048331","1913-06-19",44.96,44.06,,,
"USC00048331","1913-06-20",55.04,44.96,,,
"USC00048331","1913-06-21",55.94,53.06,,,
"USC00048331","1913-06-22",51.08,46.94,,,
"USC00048331","1913-06-23",50.00,48.02,,,
"USC00048331","1913-06-24",53.06,51.98,,,
"USC00048331","1913-06-25",48.02,48.02,,,
"USC00048331","1913-06-26",42.98,41.00,,,
"USC00048331","1913-06-27",41.00,37.94,,,
"USC00048331","1913-06-28",46.94,42.98,,,
"USC00048331","1913-06-29",53.96,50.00,,,
"USC00048331","1913-06-30",55.04,51.98,,,
"USC00048331","1913-07-01",53.96,51.98,,,
"USC00048331","1913-07-02",53.96,51.98,,,
"USC00048331","1913-07-03",53.96,53.96,,,
"USC00048331","1913-07-04",55.94,55.04,,,
"USC00048331","1913-07-05",62.06,57.92,,,
"USC00048331","1913-07-06",66.92,64.94,,,
"USC00048331","1913-07-07",69.98,66.02,,,
"USC00048331","1913-07-08",66.02,62.06,,,
"USC00048331","1913-07-09",64.04,60.08,,,
"USC00048331","1913-07-10",60.08,57.92,,,
"USC00048331","1913-07-11",68.00,60.98,,,
"USC00048331","1913-07-12",66.92,66.02,,,
"USC00048331","1913-07-13",62.06,55.94,,,
"USC00048331","1913-07-14",53.96,51.98,,,
"USC00048331","1913-07-15",55.94,57.02,,,
"USC00048331","1913-07-16",57.02,51.98,,,
"USC00048331","1913-07-17",62.06,53.96,,,
"USC00048331","1913-07-18",55.94,53.96,,,
"USC00048331","1913-07-19",66.02,62.06,,,
"USC00048331","1913-07-20",57.92,55.94,,,
"USC00048331","1913-07-21",57.92,55.94,,,
"USC00048331","1913-07-22",57.92,55.94,,,
"USC00048331","1913-07-23",57.92,53.96,,,
"USC00048331","1913-07-24",50.00,48.02,,,
"USC00048331","1913-07-25",57.92,53.96,,,
"USC00048331","1913-07-26",53.06,48.92,,,
"USC00048331","1913-07-27",51.98,48.92,,,
"USC00048331","1913-07-28",50.00,48.92,,,
"USC00048331","1913-07-29",51.98,51.08,,,
"USC00048331","1913-07-30",55.94,53.96,,,
"USC00048331","1913-07-31",60.98,59.00,,,
"USC00048331","1913-08-01",59.00,55.94,,,
"USC00048331","1913-08-02",60.98,55.94,,,
"USC00048331","1913-08-03",62.06,57.92,,,
"USC00048331","1913-08-04",62.96,57.92,,,
"USC00048331","1913-08-05",57.02,51.98,,,
"USC00048331","1913-08-06",64.94,57.92,,,
"USC00048331","1913-08-07",66.92,62.96,,,
"USC00048331","1913-08-08",68.00,60.98,,,
"USC00048331","1913-08-09",71.06,55.94,,,
"USC00048331","1913-08-10",64.94,55.94,,,
"USC00048331","1913-08-11",62.96,50.00,,,
"USC00048331","1913-08-12",59.00,51.08,,,
"USC00048331","1913-08-13",66.92,53.96,,,
"USC00048331","1913-08-14",59.00,48.02,,,
"USC00048331","1913-08-15",57.92,44.96,,,
"USC00048331","1913-08-16",59.00,44.96,,,
"USC00048331","1913-08-17",57.02,44.96,,,
"USC00048331","1913-08-18",60.98,48.02,,,
"USC00048331","1913-08-19",60.08,46.94,,,
"USC00048331","1913-08-20",64.94,51.98,,,
"USC00048331","1913-08-21",69.08,55.04,,,
"USC00048331","1913-08-22",68.00,55.94,,,
"USC00048331","1913-08-23",69.08,57.92,,,
"USC00048331","1913-08-24",69.98,62.06,,,
"USC00048331","1913-08-25",69.98,57.92,,,
"USC00048331","1913-08-26",68.00,57.02,,,
"USC00048331","1913-08-27",69.08,53.96,,,
"USC00048331","1913-08-28",71.06,62.06,,,
"USC00048331","1913-08-29",69.08,57.92,,,
"USC00048331","1913-08-30",68.00,55.94,,,
"USC00048331","1913-08-31",69.08,53.96,,,
"USC00048331","1913-09-01",53.96,,,,
"USC00048331","1913-09-02",46.04,,,,
"USC00048331","1913-09-03",48.92,,,,
"USC00048331","1913-09-04",41.00,,,,
"USC00048331","1913-09-05",42.08,,,,
"USC00048331","1913-09-06",46.04,,,,
"USC00048331","1913-09-07",44.06,,,,
"USC00048331","1913-09-08",42.08,,,,
"USC00048331","1913-09-09",39.92,,,,
"USC00048331","1913-09-10",51.08,,,,
"USC00048331","1913-09-11",48.02,,,,
"USC00048331","1913-09-12",50.00,,,,
"USC00048331","1913-09-13",57.92,,,,
"USC00048331","1913-09-14",44.06,,,,
"USC00048331","1913-09-15",50.00,,,,
"USC00048331","1913-09-16",60.08,,,,
"USC00048331","1913-09-17",51.08,,,,
"USC00048331","1913-09-18",53.06,,,,
"USC00048331","1913-09-19",50.00,,,,
"USC00048331","1913-09-20",48.92,,,,
"USC00048331","1913-09-21",53.96,,,,
"USC00048331","1913-09-22",44.06,,,,
"USC00048331","1913-09-23",37.94,,,,
"USC00048331","1913-09-24",39.92,,,,
"USC00048331","1913-09-25",42.08,,,,
"USC00048331","1913-09-26",35.06,,,,
"USC00048331","1913-09-27",48.92,,,,
"USC00048331","1913-09-28",35.96,,,,
"USC00048331","1913-09-29",37.94,,,,
"USC00048331","1913-09-30",39.92,,,,
"USC00048331","1913-10-01",48.02,,,,
"USC00048331","1913-10-02",44.96,,,,
"USC00048331","1913-10-03",37.94,,,,
"USC00048331","1913-10-04",37.94,,,,
"USC00048331","1913-10-05",28.04,,,,
"USC00048331","1913-10-06",28.04,,,,
"USC00048331","1913-10-07",39.92,,,,
"USC00048331","1913-10-08",41.00,,,,
"USC00048331","1913-10-09",35.96,,,,
"USC00048331","1913-10-10",33.08,,,,
"USC00048331","1913-10-11",32.00,,,,
"USC00048331","1913-10-12",35.96,,,,
"USC00048331","1913-10-13",42.08,,,,
"USC00048331","1913-10-14",32.00,,,,
"USC00048331","1913-10-15",32.00,,,,
"USC00048331","1913-10-16",30.02,,,,
"USC00048331","1913-10-17",37.94,,,,
"USC00048331","1913-10-18",33.08,,,,
"USC00048331","1913-10-19",37.04,,,,
"USC00048331","1913-10-20",32.00,,,,
"USC00048331","1913-10-21",33.08,,,,
"USC00048331","1913-10-22",37.04,,,,
"USC00048331","1913-10-23",37.94,,,,
"USC00048331","1913-10-24",37.04,,,,
"USC00048331","1913-10-25",41.00,,,,
"USC00048331","1913-10-26",35.06,,,,
"USC00048331","1913-10-27",30.92,,,,
"USC00048331","1913-10-28",39.02,,,,
"USC00048331","1913-10-29",39.92,,,,
"USC00048331","1913-10-30",37.94,,,,
"USC00048331","1913-10-31",33.08,,,,
"USC00048331","1913-11-01",39.92,,,,
"USC00048331","1913-11-02",33.08,,,,
"USC00048331","1913-11-03",30.92,,,,
"USC00048331","1913-11-04",37.04,,,,
"USC00048331","1913-11-05",37.94,,,,
"USC00048331","1913-11-06",42.98,,,,
"USC00048331","1913-11-07",32.00,,,,
"USC00048331","1913-11-08",33.98,,,,
"USC00048331","1913-11-09",48.02,,,,
"USC00048331","1913-11-10",37.94,,,,
"USC00048331","1913-11-11",35.96,,,,
"USC00048331","1913-11-12",33.08,,,,
"USC00048331","1913-11-13",33.08,,,,
"USC00048331","1913-11-14",33.08,,,,
"USC00048331","1913-11-15",28.04,,,,
"USC00048331","1913-11-16",21.92,,,,
"USC00048331","1913-11-17",24.98,,,,
"USC00048331","1913-11-18",35.06,,,,
"USC00048331","1913-11-19",30.02,,,,
"USC00048331","1913-11-20",30.02,,,,
"USC00048331","1913-11-21",21.92,,,,
"USC00048331","1913-11-22",12.92,,,,
"USC00048331","1913-11-23",12.02,,,,
"USC00048331","1913-11-24",10.04,,,,
"USC00048331","1913-11-25",30.02,,,,
"USC00048331","1913-11-26",32.00,,,,
"USC00048331","1913-11-27",30.92,,,,
"USC00048331","1913-11-28",8.96,,,,
"USC00048331","1913-11-29",28.04,,,,
"USC00048331","1913-11-30",19.04,,,,
"USC00048331","1913-12-01",19.94,,,,
"USC00048331","1913-12-02",19.94,,,,
"USC00048331","1913-12-03",19.94,,,,
"USC00048331","1913-12-04",6.98,,,,
"USC00048331","1913-12-05",32.00,,,,
"USC00048331","1913-12-06",23.00,,,,
"USC00048331","1913-12-07",17.06,,,,
"USC00048331","1913-12-08",12.02,,,,
"USC00048331","1913-12-09",6.98,,,,
"USC00048331","1913-12-10",17.96,,,,
"USC00048331","1913-12-11",33.98,,,,
"USC00048331","1913-12-12",8.06,,,,
"USC00048331","1913-12-13",32.00,,,,
"USC00048331","1913-12-14",28.04,,,,
"USC00048331","1913-12-15",24.08,,,,
"USC00048331","1913-12-16",15.98,,,,
"USC00048331","1913-12-17",30.02,,,,
"USC00048331","1913-12-18",-2.92,,,,
"USC00048331","1913-12-19",21.02,,,,
"USC00048331","1913-12-20",24.08,,,,
"USC00048331","1913-12-21",23.00,,,,
"USC00048331","1913-12-22",28.04,,,,
"USC00048331","1913-12-23",21.02,,,,
"USC00048331","1913-12-24",33.98,,,,
"USC00048331","1913-12-25",30.92,,,,
"USC00048331","1913-12-26",17.06,,,,
"USC00048331","1913-12-27",14.00,,,,
"USC00048331","1913-12-28",21.92,,,,
"USC00048331","1913-12-29",28.94,,,,
"USC00048331","1913-12-30",32.00,,,,
"USC00048331","1913-12-31",35.06,,,,
"USC00048331","1914-01-01",35.06,,,,
"USC00048331","1914-01-02",39.92,,,,
"USC00048331","1914-01-03",35.06,,,,
"USC00048331","1914-01-04",21.92,,,,
"USC00048331","1914-01-05",21.92,,,,
"USC00048331","1914-01-06",12.02,,,,
"USC00048331","1914-01-07",35.96,,,,
"USC00048331","1914-01-08",30.02,,,,
"USC00048331","1914-01-09",-2.92,,,,
"USC00048331","1914-01-10",-0.04,,,,
"USC00048331","1914-01-11",-0.94,,,,
"USC00048331","1914-01-12",32.00,,,,
"USC00048331","1914-01-13",28.94,,,,
"USC00048331","1914-01-14",28.04,,,,
"USC00048331","1914-01-15",23.00,,,,
"USC00048331","1914-01-16",30.92,,,,
"USC00048331","1914-01-17",28.04,,,,
"USC00048331","1914-01-18",23.00,,,,
"USC00048331","1914-01-19",24.98,,,,
"USC00048331","1914-01-20",23.00,,,,
"USC00048331","1914-01-21",28.94,,,,
"USC00048331","1914-01-22",33.98,,,,
"USC00048331","1914-01-23",32.00,,,,
"USC00048331","1914-01-24",33.98,,,,
"USC00048331","1914-01-25",35.96,,,,
"USC00048331","1914-01-26",24.08,,,,
"USC00048331","1914-01-27",24.98,,,,
"USC00048331","1914-01-28",15.08,,,,
"USC00048331","1914-01-29",19.94,,,,
"USC00048331","1914-01-30",19.94,,,,
"USC00048331","1914-01-31",17.06,,,,
"USC00048331","1914-02-01",17.06,8.96,,,
"USC00048331","1914-02-02",21.02,17.96,,,
"USC00048331","1914-02-03",23.00,17.06,,,
"USC00048331","1914-02-04",15.08,10.04,,,
"USC00048331","1914-02-05",19.04,15.08,,,
"USC00048331","1914-02-06",19.04,10.04,,,
"USC00048331","1914-02-07",12.92,6.08,,,
"USC00048331","1914-02-08",26.96,21.92,,,
"USC00048331","1914-02-09",23.00,15.08,,,
"USC00048331","1914-02-10",39.02,35.06,,,
"USC00048331","1914-02-11",37.04,30.02,,,
"USC00048331","1914-02-12",32.00,24.98,,,
"USC00048331","1914-02-13",26.96,19.94,,,
"USC00048331","1914-02-14",28.94,21.92,,,
"USC00048331","1914-02-15",37.04,28.04,,,
"USC00048331","1914-02-16",39.02,33.08,5.00,5.00,
"USC00048331","1914-02-17",35.06,33.08,,660.00,
"USC00048331","1914-02-18",37.04,30.02,,254.00,
"USC00048331","1914-02-19",37.04,32.00,,279.00,
"USC00048331","1914-02-20",39.02,33.98,,610.00,
"USC00048331","1914-02-21",37.04,30.02,,3.00,
"USC00048331","1914-02-22",33.98,24.08,,13.00,
"USC00048331","1914-02-23",30.92,19.94,,,
"USC00048331","1914-02-24",33.08,30.92,,,
"USC00048331","1914-02-25",30.02,26.96,,,
"USC00048331","1914-02-26",28.94,24.98,,,
"USC00048331","1914-02-27",35.06,21.02,,,
"USC00048331","1914-02-28",39.92,21.02,,,
"USC00048331","1914-03-01",35.96,30.92,,,
"USC00048331","1914-03-02",28.04,24.98,,,
"USC00048331","1914-03-03",48.02,26.06,,,
"USC00048331","1914-03-04",48.02,26.06,,,
"USC00048331","1914-03-05",50.00,32.00,,,
"USC00048331","1914-03-06",48.02,33.98,,,
"USC00048331","1914-03-07",48.02,32.00,,,
"USC00048331","1914-03-08",46.94,24.98,,,
"USC00048331","1914-03-09",50.00,24.98,,,
"USC00048331","1914-03-10",53.06,26.96,,,
"USC00048331","1914-03-11",51.98,28.04,,,
"USC00048331","1914-03-12",51.98,33.08,,,
"USC00048331","1914-03-13",48.92,26.96,,,
"USC00048331","1914-03-14",55.94,24.08,,,
"USC00048331","1914-03-15",55.94,37.94,,,
"USC00048331","1914-03-16",55.04,42.98,,,
"USC00048331","1914-03-17",57.92,42.98,,,
"USC00048331","1914-03-18",57.02,44.06,,,
"USC00048331","1914-03-19",60.98,35.06,,,
"USC00048331","1914-03-20",57.92,33.08,,,
"USC00048331","1914-03-21",57.02,28.94,,,
"USC00048331","1914-03-22",46.94,33.08,,,
"USC00048331","1914-03-23",46.04,33.98,,,
"USC00048331","1914-03-24",44.96,26.96,,,
"USC00048331","1914-03-25",44.96,30.02,,,
"USC00048331","1914-03-26",32.00,26.96,,,
"USC00048331","1914-03-27",37.04,28.04,,8.00,
"USC00048331","1914-03-28",32.00,26.96,,13.00,
"USC00048331","1914-03-29",35.06,26.96,,127.00,
"USC00048331","1914-03-30",33.98,24.98,,51.00,
"USC00048331","1914-03-31",51.08,24.98,,,
"USC00048331","1914-04-01",42.08,30.02,,,
"USC00048331","1914-04-02",53.96,37.94,,,
"USC00048331","1914-04-03",53.06,32.00,,,
"USC00048331","1914-04-04",53.06,37.94,137.00,,
"USC00048331","1914-04-05",44.96,37.94,,,
"USC00048331","1914-04-06",44.96,37.04,3.00,,0.00
"USC00048331","1914-04-07",50.00,37.04,,,
"USC00048331","1914-04-08",51.08,39.02,140.00,,
"USC00048331","1914-04-09",41.00,35.06,216.00,,
"USC00048331","1914-04-10",41.00,30.02,,,
"USC00048331","1914-04-11",44.06,30.02,,,
"USC00048331","1914-04-12",55.04,33.98,,,
"USC00048331","1914-04-13",55.04,35.06,0.00,,
"USC00048331","1914-04-14",55.04,37.94,3.00,,
"USC00048331","1914-04-15",53.06,33.98,10.00,,
"USC00048331","1914-04-16",55.04,32.00,,,
"USC00048331","1914-04-17",64.04,37.94,,,
"USC00048331","1914-04-18",68.00,37.04,,,
"USC00048331","1914-04-19",60.98,39.92,,,
"USC00048331","1914-04-20",48.02,44.06,,,
"USC00048331","1914-04-21",44.96,35.96,,3.00,
"USC00048331","1914-04-22",35.96,32.00,,0.00,
"USC00048331","1914-04-23",44.96,30.02,,0.00,
"USC00048331","1914-04-24",55.94,28.04,,,
"USC00048331","1914-04-25",57.92,28.94,,13.00,
"USC00048331","1914-04-26",35.06,28.94,,102.00,
"USC00048331","1914-04-27",44.96,32.00,,51.00,
"USC00048331","1914-04-28",48.02,32.00,,,
"USC00048331","1914-04-29",55.04,35.06,,,
"USC00048331","1914-04-30",55.94,37.94,,,
"USC00048331","1914-05-01",62.96,41.00,,,
"USC00048331","1914-05-02",64.94,39.92,,,
"USC00048331","1914-05-03",66.92,42.98,,,
"USC00048331","1914-05-04",64.04,37.94,,,
"USC00048331","1914-05-05",57.92,37.04,,,
"USC00048331","1914-05-06",62.96,39.92,,,
"USC00048331","1914-05-07",55.04,41.00,,,
"USC00048331","1914-05-08",53.96,37.94,,,
"USC00048331","1914-05-09",48.02,37.04,,,
"USC00048331","1914-05-10",48.02,37.04,3.00,,
"USC00048331","1914-05-11",66.92,39.02,,,
"USC00048331","1914-05-12",66.92,42.98,,,
"USC00048331","1914-05-13",64.04,39.92,5.00,,
"USC00048331","1914-05-14",71.96,42.98,,,
"USC00048331","1914-05-15",64.04,42.08,,,
"USC00048331","1914-05-16",62.96,42.98,,,
"USC00048331","1914-05-17",64.04,37.94,,,
"USC00048331","1914-05-18",66.02,37.94,,,
"USC00048331","1914-05-19",68.00,39.02,,,
"USC00048331","1914-05-20",69.98,42.98,,,
"USC00048331","1914-05-21",62.06,42.98,25.00,,
"USC00048331","1914-05-22",51.98,39.02,97.00,,
"USC00048331","1914-05-23",44.06,37.04,165.00,,
"USC00048331","1914-05-24",42.08,33.98,,,
"USC00048331","1914-05-25",51.98,35.96,,,
"USC00048331","1914-05-26",69.98,41.00,,,
"USC00048331","1914-05-27",60.08,39.92,,,
"USC00048331","1914-05-28",80.06,42.98,,,
"USC00048331","1914-05-29",75.92,44.96,,,
"USC00048331","1914-05-30",73.94,44.96,,,
"USC00048331","1914-05-31",68.00,46.04,51.00,,
"USC00048331","1914-06-01",69.98,50.00,,,
"USC00048331","1914-06-02",68.00,41.00,,,
"USC00048331","1914-06-03",64.94,42.98,,,
"USC00048331","1914-06-04",50.00,35.96,,,
"USC00048331","1914-06-05",44.96,30.02,,,
"USC00048331","1914-06-06",37.94,30.02,,,
"USC00048331","1914-06-07",39.92,35.96,,,
"USC00048331","1914-06-08",44.06,37.04,,,
"USC00048331","1914-06-09",64.04,37.94,,,
"USC00048331","1914-06-10",75.92,42.98,,,
"USC00048331","1914-06-11",60.08,39.92,,,
"USC00048331","1914-06-12",59.00,42.08,,,
"USC00048331","1914-06-13",64.04,44.06,,,
"USC00048331","1914-06-14",78.08,46.04,,,
"USC00048331","1914-06-15",73.94,48.02,,,
"USC00048331","1914-06-16",80.06,50.00,,,
"USC00048331","1914-06-17",84.92,48.92,,,
"USC00048331","1914-06-18",62.06,46.04,132.00,,
"USC00048331","1914-06-19",64.04,46.94,,,
"USC00048331","1914-06-20",73.94,46.04,,,
"USC00048331","1914-06-21",64.04,46.04,,,
"USC00048331","1914-06-22",60.08,42.08,,,
"USC00048331","1914-06-23",62.06,42.08,,,
"USC00048331","1914-06-24",50.00,37.94,51.00,,
"USC00048331","1914-06-25",62.06,39.02,,,
"USC00048331","1914-06-26",71.96,44.96,,,
"USC00048331","1914-06-27",73.94,51.08,,,
"USC00048331","1914-06-28",80.96,51.98,,,
"USC00048331","1914-06-29",78.08,55.94,,,
"USC00048331","1914-06-30",73.04,51.98,,,
"USC00048331","1914-07-01",75.92,53.96,,,
"USC00048331","1914-07-02",75.92,53.96,,,
"USC00048331","1914-07-03",73.94,53.96,,,
"USC00048331","1914-07-04",73.94,51.98,,,
"USC00048331","1914-07-05",71.96,53.96,,,
"USC00048331","1914-07-06",71.96,51.08,,,
"USC00048331","1914-07-07",73.94,55.94,,,
"USC00048331","1914-07-08",71.96,48.02,,,
"USC00048331","1914-07-09",69.98,53.96,,,
"USC00048331","1914-07-10",73.94,48.92,,,
"USC00048331","1914-07-11",69.98,50.00,,,
"USC00048331","1914-07-12",71.96,48.92,,,
"USC00048331","1914-07-13",73.94,50.00,,,
"USC00048331","1914-07-14",82.04,53.96,,,
"USC00048331","1914-07-15",84.92,53.96,,,
"USC00048331","1914-07-16",84.02,55.94,,,
"USC00048331","1914-07-17",84.02,53.96,,,
"USC00048331","1914-07-18",80.06,55.94,,,
"USC00048331","1914-07-19",73.94,48.02,,,
"USC00048331","1914-07-20",73.94,48.92,,,
"USC00048331","1914-07-21",71.96,48.02,,,
"USC00048331","1914-07-22",73.94,51.98,,,
"USC00048331","1914-07-23",71.96,51.08,,,
"USC00048331","1914-07-24",73.94,51.98,,,
"USC00048331","1914-07-25",73.94,51.98,,,
"USC00048331","1914-07-26",71.96,50.00,,,
"USC00048331","1914-07-27",71.96,48.02,,,
"USC00048331","1914-07-28",71.96,53.96,,,
"USC00048331","1914-07-29",71.96,48.02,,,
"USC00048331","1914-07-30",75.92,48.02,,,
"USC00048331","1914-07-31",78.08,51.98,,,
"USC00048331","1914-08-01",78.08,51.98,,,
"USC00048331","1914-08-02",80.06,51.98,,,
"USC00048331","1914-08-03",80.06,53.96,,,
"USC00048331","1914-08-04",84.02,55.94,,,
"USC00048331","1914-08-05",82.04,55.94,,,
"USC00048331","1914-08-06",78.08,50.00,,,
"USC00048331","1914-08-07",71.96,48.02,,,
"USC00048331","1914-08-08",75.92,48.02,,,
"USC00048331","1914-08-09",78.08,50.00,,,
"USC00048331","1914-08-10",78.08,51.98,,,
"USC00048331","1914-08-11",80.06,51.98,,,
"USC00048331","1914-08-12",82.94,53.96,,,
"USC00048331","1914-08-13",82.04,51.98,,,
"USC00048331","1914-08-14",78.98,51.98,,,
"USC00048331","1914-08-15",80.06,53.96,,,
"USC00048331","1914-08-16",73.94,55.94,,,
"USC00048331","1914-08-17",71.96,42.08,,,
"USC00048331","1914-08-18",69.98,44.06,,,
"USC00048331","1914-08-19",68.00,44.06,,,
"USC00048331","1914-08-20",69.98,44.06,,,
"USC00048331","1914-08-21",71.06,42.98,,,
"USC00048331","1914-08-22",73.04,44.06,,,
"USC00048331","1914-08-23",73.94,42.98,,,
"USC00048331","1914-08-24",73.04,44.06,,,
"USC00048331","1914-08-25",69.08,42.08,,,
"USC00048331","1914-08-26",69.08,44.06,,,
"USC00048331","1914-08-27",68.00,42.08,,,
"USC00048331","1914-08-28",69.08,46.04,,,
"USC00048331","1914-08-29",73.94,46.04,,,
"USC00048331","1914-08-30",75.92,46.94,,,
"USC00048331","1914-08-31",78.08,46.04,,,
"USC00048331","1914-09-01",75.92,46.94,,,
"USC00048331","1914-09-02",68.00,48.02,,,
"USC00048331","1914-09-03",69.08,44.06,,,
"USC00048331","1914-09-04",69.98,42.08,,,
"USC00048331","1914-09-05",68.00,39.92,,,
"USC00048331","1914-09-06",66.02,44.06,,,
"USC00048331","1914-09-07",50.00,35.96,,,
"USC00048331","1914-09-08",64.04,32.00,,,
"USC00048331","1914-09-09",71.96,42.08,,,
"USC00048331","1914-09-10",71.96,44.06,,,
"USC00048331","1914-09-11",71.96,41.00,,,
"USC00048331","1914-09-12",68.00,44.06,,,
"USC00048331","1914-09-13",66.02,37.94,,,
"USC00048331","1914-09-14",68.00,37.94,,,
"USC00048331","1914-09-15",48.02,42.08,,,
"USC00048331","1914-09-16",55.94,39.92,,,
"USC00048331","1914-09-17",68.00,44.06,157.00,,
"USC00048331","1914-09-18",66.02,48.02,,,
"USC00048331","1914-09-19",64.04,39.02,,,
"USC00048331","1914-09-20",69.98,32.00,,,
"USC00048331","1914-09-21",68.00,41.00,,,
"USC00048331","1914-09-22",69.98,37.94,,,
"USC00048331","1914-09-23",71.96,39.02,,,
"USC00048331","1914-09-24",69.98,39.02,25.00,,
"USC00048331","1914-09-25",69.98,42.08,,,
"USC00048331","1914-09-26",68.00,42.08,,,
"USC00048331","1914-09-27",69.98,39.92,,,
"USC00048331","1914-09-28",71.06,37.94,,,
"USC00048331","1914-09-29",68.00,35.96,,,
"USC00048331","1914-09-30",68.00,37.94,,,
"USC00048331","1914-10-01",69.08,41.00,,,
"USC00048331","1914-10-02",50.00,33.98,,0.00,
"USC00048331","1914-10-03",68.00,35.96,,,
"USC00048331","1914-10-04",68.00,30.02,,,
"USC00048331","1914-10-05",68.00,28.94,,,
"USC00048331","1914-10-06",68.00,30.02,,,
"USC00048331","1914-10-07",66.02,30.02,,,
"USC00048331","1914-10-08",60.08,35.96,185.00,,
"USC00048331","1914-10-09",64.04,33.98,81.00,,
"USC00048331","1914-10-10",66.02,35.96,48.00,,